User: anonymous
Location: Oshawa
(43.9000°N, 78.8670°W)
Time: 19:40:20
(UTC-04:00)
Language:

Cosmos 2333 Rocket - Orbit

View from above orbital plane
View from above orbital plane
View from above satellite
View from above satellite

Ground track
Ground track

The orbit data is extracted from the following two-line orbital elements,

1 24298U 96051B   14212.75615997 -.00000174  00000-0 -67816-4 0  5098
2 24298 070.8660 118.0939 0017875 300.8656 090.7508 14.12471139923366
Epoch (UTC): 31 July 2014 18:08:52
Eccentricity: 0.0017875
inclination: 70.8660°
perigee height: 838 km
apogee height: 864 km
right ascension of ascending node: 118.0939°
argument of perigee: 300.8656°
revolutions per day: 14.12471139
mean anomaly at epoch: 90.7508°
orbit number at epoch: 92336

The dashed part of the orbit path shows where the satellite is in the earth's shadow,  

DLR